Weather Roundup
Issued by NWS Chicago, IL

Home | Current Version | Previous Version | Text Only | Print | Product List | Glossary Off
Versions: 1 2 3 4 5 6 7 8 9 10 11 12 13 14 15 16 17 18 19 20 21 22 23 24 25 26 27 28 29 30 31 32 33 34 35 36 37 38 39 40 41 42 43 44 45 46 47 48 49 50

000
NZUS59 KLOT 271402
HRRLOT

CHICAGO AREA WEATHER ROUNDUP
NATIONAL WEATHER SERVICE CHICAGO/ROMEOVILLE IL
900 AM CDT MON APR 27 2015

NOTE: "FAIR" INDICATES FEW OR NO CLOUDS BELOW 12,000 FEET WITH NO
SIGNIFICANT WEATHER AND/OR OBSTRUCTIONS TO VISIBILITY.

* THESE STATIONS ARE NOT UNDER NWS QUALITY CONTROL. THEY ALSO MAY NOT
  REPORT WEATHER SUCH AS PRECIPITATION OR FOG.

ILZ005-006-012>014-019>023-271500-
NORTHEAST ILLINOIS

CITY           SKY/WX    TMP DP  RH WIND       PRES   REMARKS
OHARE          MOSUNNY   47  32  56 N9        30.12R
MIDWAY         MOSUNNY   50  34  54 N12       30.12R
AURORA           N/A     47  33  58 N9        30.15R
WAUKEGAN       SUNNY     48  33  56 N13G20    30.11R
DUPAGE AIRPORT SUNNY     48  33  56 N8        30.13R
WHEELING       SUNNY     49  33  54 N8        30.14R
NORTHERLY IS     N/A     46  34  62 MISG        N/A
$$

WIZ051-052-058>065-066-070>072-271500-
SOUTHEAST WISCONSIN

CITY           SKY/WX    TMP DP  RH WIND       PRES   REMARKS
MILWAUKEE      MOSUNNY   48  33  56 N14G23    30.13R
KENOSHA*       SUNNY     49  34  56 N13       30.12R
RACINE*        SUNNY     48  33  56 N16G22    30.13R
WAUKESHA       SUNNY     46  30  53 NW7       30.13R
$$

INZ001>003-010>013-019-020-271500-
NORTHWEST INDIANA

CITY           SKY/WX    TMP DP  RH WIND       PRES   REMARKS
GARY*          SUNNY     46  32  57 N12G25    30.12R
MICHIGAN CITY* NOT AVBL
RENSSELAER*    NOT AVBL
$$

LMZ740>746-271500-
SOUTHERN LAKE MICHIGAN

STATION/POSITION TIME  SKY/WX   TEMP WIND        PRES    VSBY
                                AIR  DIR/SP/G
                 (UTC)          (F)  (DEG/KT/KT) (MB)    (MI)
HARRISON CRIB    1300            41  350/ 16/ 19   N/A
BURNHAM HARBOR   1300            44  330/  9/ 18   N/A
CALUMET HARBOR   1300            44  330/ 13/ 18   N/A
BURNS HARBOR     1300            41  350/ 15/ 18 1019.3R
MICHIGAN CITY    1300            41  340/ 21/ 24   N/A
$$

ABBREVIATIONS USED IN REMARKS
   TC - TEMPERATURE IN CELSIUS
  WCI - WIND CHILL INDEX
   HX - HEAT INDEX
  VSB - VISIBILITY
$$


USA.gov is the U.S. government's official web portal to all federal, state and local government web resources and services.